Location: Boiro
(42.6475°N, 8.8834°W)
Time: 16:14:25
(UTC+02:00)

Explorer 7 - Pass Details

Date: 26 June 2022
Orbit: 482 x 668 km, 50.3° (Epoch: 10 August)

Event Time Altitude Azimuth Distance (km) Brightness Sun altitude
Exits shadow 02:51:40 65° 110° (ESE) 714 7.2 -23.9°
Drops below altitude 10° 02:55:54 10° 63° (ENE) 2,016 10.1 -23.9°
Sets 02:58:11 0° 61° (ENE) 2,898 11.0 -23.8°
